AirNav   Everest Fuels
 
 396 users online  

KVLL Oakland/Troy Airport
Troy, Michigan, USA

GOING TO TROY?


FAA INFORMATION EFFECTIVE 16 JULY 2020

Location

FAA Identifier: VLL
Lat/Long: 42-32-34.6000N 083-10-40.4000W
42-32.576667N 083-10.673333W
42.5429444,-83.1778889
(estimated)
Elevation: 727.2 ft. / 221.7 m (surveyed)
Variation: 06W (1995)
From city: 2 miles E of TROY, MI
Time zone: UTC -4 (UTC -5 during Standard Time)
Zip code: 48084

Airport Operations

Airport use: Open to the public
Control tower: no
ARTCC: CLEVELAND CENTER
FSS: LANSING FLIGHT SERVICE STATION
NOTAMs facility: VLL (NOTAM-D service available)
Attendance: 0800-1800
Pattern altitude: 1727.2 ft. MSL
Wind indicator: lighted
Segmented circle: no
Lights: ACTVT MIRL RY 09/27 & PAPI RYS 09 & 27 - CTAF.
Beacon: white-green (lighted land airport)
Operates sunset to sunrise.
Landing fee: yes

Airport Communications

CTAF/UNICOM: 123.05
WX AWOS-3: 119.475 (248-288-4649)
DETROIT APPROACH: 134.3
DETROIT DEPARTURE: 134.3
WX ASOS at DET (11 nm SE): PHONE 313-371-9696
WX ASOS at PTK (13 nm NW): 125.025 (248-886-8551)

Nearby radio navigation aids

VOR radial/distance  VOR name  Freq  Var
SVMr069/20.1SALEM VORTAC114.3003W
DXOr029/21.5DETROIT VOR/DME113.4006W
CRLr026/32.2CARLETON VOR/DME115.7003W
FNTr141/35.7FLINT VORTAC116.9006W

 
NDB name  Hdg/Dist  Freq  Var  ID
GROSSE ILE005/26.541907WRYS .-. -.-- ...

Airport Services

Fuel available: 100LL JET-A
Parking: tiedowns
Airframe service: NONE
Powerplant service: NONE

Runway Information

Runway 9/27

Dimensions: 3549 x 60 ft. / 1082 x 18 m
Surface: asphalt, in fair condition
Runway edge lights: medium intensity
RUNWAY 9  RUNWAY 27
Latitude: 42-32.575973N42-32.578848N
Longitude: 083-11.068925W083-10.278788W
Elevation: 727.0 ft.701.0 ft.
Traffic pattern: leftleft
Runway heading: 096 magnetic, 090 true276 magnetic, 270 true
Markings: nonprecision, in good conditionnonprecision, in good condition
Visual slope indicator: 2-light PAPI on right (3.75 degrees glide path)2-light PAPI on left (3.75 degrees glide path)
Runway end identifier lights: nono
Touchdown point: yes, no lightsyes, no lights
Obstructions: 19 ft. tree, 207 ft. from runway, 137 ft. right of centerline30 ft. tree, 200 ft. from runway, 125 ft. left of centerline

Airport Ownership and Management from official FAA records

Ownership: Publicly-owned
Owner: OAKLAND COUNTY
6500 HIGHLAND ROAD
WATERFORD, MI 48327
Phone (248) 288-6100
ARPT PHONE 248-666-3900
Manager: CHERYL BUSH
6500 HIGHLAND RD
WATERFORD, MI 48327
Phone 248-666-3900

Airport Operational Statistics

Aircraft based on the field: 113
Single engine airplanes: 102
Multi engine airplanes: 5
Helicopters: 5
Ultralights: 1
    
Aircraft operations: avg 82/day *
50% transient general aviation
50% local general aviation
* for 12-month period ending 31 December 2019

Additional Remarks

DEER AND BIRDS ON & INVOF ARPT.
RY 09 +3 FT BERM 316 FT FM THLD.
NO TGL OR PRACTICE TFC PATTERNS.
FOR CD CTC DETROIT APCH AT 800-499-8181.

Instrument Procedures

NOTE: All procedures below are presented as PDF files. If you need a reader for these files, you should download the free Adobe Reader.

NOT FOR NAVIGATION. Please procure official charts for flight.
FAA instrument procedures published for use from 16 July 2020 at 0901Z to 13 August 2020 at 0900Z.

 
STARs - Standard Terminal Arrivals
FOREY TWO (RNAV) **CHANGED**   download (177KB)
OKLND ONE (RNAV) **CHANGED**   download (159KB)
PETTE TWO (RNAV) **CHANGED**   download (220KB)
RRALF THREE (RNAV) **CHANGED**   download (179KB)
 
IAPs - Instrument Approach Procedures
RNAV (GPS) RWY 09   download (194KB)
 
Departure Procedures
BARII TWO (RNAV)   download (172KB)
CCOBB TWO (RNAV)   download (216KB)
CLVIN TWO (RNAV)   download (186KB)
HHOWE THREE (RNAV)   download (203KB)
KAYLN TWO (RNAV)   download (180KB)
LIDDS TWO (RNAV)   download (195KB)
MIGGY TWO (RNAV)   download (214KB)
PAVYL TWO (RNAV)   download (191KB)
SNDRS TWO (RNAV)   download (227KB)
TRMML THREE (RNAV)   download (176KB)
ZETTR THREE (RNAV)   download (218KB)
NOTE: Special Take-Off Minimums/Departure Procedures apply   download (125KB)

Other nearby airports with instrument procedures:

KDET - Coleman A Young Municipal Airport (11 nm SE)
KPTK - Oakland County International Airport (13 nm NW)
KMTC - Selfridge Air National Guard Base (16 nm E)
1D2 - Canton-Plymouth-Mettetal Airport (17 nm SW)
57D - Ray Community Airport (17 nm NE)
D98 - Romeo State Airport (18 nm NE)
Y47 - Oakland Southwest Airport (20 nm W)
 
Loc | Ops | Rwys | IFR | FBO | Links
Com | Nav | Svcs | Stats | Notes
Area around KVLL (Oakland/Troy Airport)
 
Road maps at: MapQuest Bing Google
 
Aerial photo
WARNING: Photo may not be current or correct
Aerial photo of KVLL (Oakland/Troy Airport)
Photo by Jeff Schuster
Photo taken 29-Jun-2014
looking west.

Do you have a better or more recent aerial photo of Oakland/Troy Airport that you would like to share? If so, please send us your photo.

 
Sectional chart

 
Airport distance calculator
Flying to Oakland/Troy Airport? Find the distance to fly.

From to KVLL

Sunrise and sunset
Times for 05-Aug-2020
 Local
(UTC-4)
 Zulu
(UTC)
Morning civil twilight06:0010:00
Sunrise06:3110:31
Sunset20:4600:46
Evening civil twilight21:1801:18

Current date and time
Zulu (UTC)  05-Aug-2020 07:35:55
Local (UTC-4)  05-Aug-2020 03:35:55
 
METAR
KVLL 050715Z AUTO 00000KT 10SM BKN085 16/15 A3005 RMK AO2 T01600151
KDET 
11nm SE 
050653Z 00000KT 10SM CLR 16/14 A3003 RMK AO2 SLP165 T01610144
KPTK 
13nm NW 
050723Z AUTO 26003KT 10SM SCT021 15/13 A3003 RMK AO2 T01500133 $
KMTC 
17nm E 
050656Z AUTO 26003KT 10SM CLR 14/14 A3001 RMK AO2 SLP166 T01390139
CYQG 
19nm SE 
050700Z AUTO 28004KT 9SM FEW085 15/14 A3003 RMK SLP170
KDTW 
20nm S 
050653Z 00000KT 10SM SCT085 SCT120 BKN200 16/14 A3003 RMK AO2 SLP167 T01560144 $
TAF
KDET 
11nm SE 
050520Z 0506/0606 33004KT P6SM FEW080 FM051500 27005KT P6SM SCT050 TEMPO 0516/0520 BKN050 FM060200 VRB03KT P6SM SCT250
KPTK 
13nm NW 
050520Z 0506/0606 33004KT P6SM FEW080 FM051500 27005KT P6SM SCT050 TEMPO 0516/0520 BKN050 FM060200 VRB03KT P6SM SCT250
KMTC 
17nm E 
050100Z 0501/0607 VRB06KT 9000 -SHRA SCT020 BKN045 QNH2995INS BECMG 0506/0507 VRB06KT 9999 NSW BKN025 QNH2997INS BECMG 0514/0515 29010G15KT 9999 FEW035 QNH3007INS BECMG 0522/0523 VRB06KT 9999 SCT040 QNH3005INS TX22/0520Z TN14/0508Z LAST NO AMDS AFT 0503 NEXT 0509
CYQG 
19nm SE 
050538Z 0506/0606 VRB03KT P6SM SCT100 FM050800 VRB03KT P6SM FEW004 SCT050 PROB30 0508/0513 1SM BR BKN004 FM051300 33007KT P6SM FEW030 FM051600 33010KT P6SM SCT050 FM052000 27007KT P6SM BKN060 FM060000 VRB03KT P6SM SCT060 RMK FCST BASED ON AUTO OBS. NXT FCST BY 051200Z
KDTW 
20nm S 
050520Z 0506/0612 33004KT P6SM FEW080 FM051500 27005KT P6SM SCT050 TEMPO 0516/0520 BKN050 FM060200 VRB03KT P6SM SCT250
NOTAMs
Click for the latest NOTAMs
NOTAMs are issued by the DoD/FAA and will open in a separate window not controlled by AirNav.

 

 
 

FBO, Fuel Providers, and Aircraft Ground Support

  
 Business Name 
 
 Contact 
 
 Services / Description 
 
Fuel Prices
 
Comments
  
JDS Pump-N-Go 248-288-6100
[email]
Aviation fuel, Aircraft parking (ramp or tiedown), Hangar leasing / sales

More info about JDS Pump-N-Go
Avfuel
100LL Jet A
SS $5.02 $3.56 
 Updated 20-Jul-2020
 
   write
24HRFUEL.com 248-221-2433
no information available

If you are affiliated with 24HRFUEL.com and would like to show here your services, contact info, web link, logo, and more, click here
100LL Jet A
SS $5.02 $3.56 
 Updated 07-Jul-2020
 
   2 read write
SS=Self service
Update Fuel Prices
 

Would you like to see your business listed on this page?

 If your business provides an interesting product or service to pilots, flight crews, aircraft, or users of the Oakland/Troy Airport, you should consider listing it here.  To start the listing process, click on the button below
 
Add a business
 

Other Pages about Oakland/Troy Airport

Oakland/Troy Airport Website
Page from the Michigan Airport Directory (PDF)
 
Update a link
 
Copyright © AirNav, LLC. All rights reserved. Privacy Policy  Contact